Dewpoint
58 58 58 58 58 58 58 58 58 58 58 58 58 58 58 58 58 58 58 57 58 58 57 58 58 58 59 59 59 59 60 57 55 51 44 39 49 58 68 69 68 65 70 59 65 60 61 61 61 61 56 54 54 54 54 64 63 61 56 51 50 50 50 54 54 55 55 57 58 62 63 62 60 64 66 67 63 63 63 63 64 65 65 65 67 68 69 70
58 58 58 58 58 58 58 58 58 58 58 58 58 58 58 58 58 58 58 57 57 57 58 58 58 58 58 59 59 60 59 57 53 51 45 53 66 65 67 68 71 68 62 48 49 47 54 55 56 57 52 52 52 51 59 59 61 58 53 50 50 50 52 57 57 56 58 58 60 62 64 63 61 63 64 62 62 62 62 63 64 64 65 66 67 68 69 69
58 58 58 58 58 58 58 58 58 57 57 58 58 58 58 57 57 57 57 57 57 57 57 58 58 58 59 59 59 60 58 52 54 50 50 66 64 67 68 69 72 70 43 45 45 35 36 42 42 53 50 46 46 47 54 54 60 58 52 50 50 51 54 60 61 58 61 61 61 61 62 64 63 65 67 61 61 61 61 62 63 63 64 66 67 68 68 69
58 58 58 58 58 58 58 58 57 57 57 57 57 57 57 57 57 57 57 57 57 57 57 58 58 58 59 59 60 58 56 54 36 43 47 69 72 68 68 73 72 66 39 43 43 37 33 28 35 29 27 34 27 44 49 47 55 55 52 49 50 53 55 56 62 63 63 63 61 61 63 62 63 65 64 61 60 60 61 63 63 63 64 65 66 67 68 68
57 57 57 57 57 57 57 57 57 57 57 57 57 57 57 57 57 57 57 57 57 57 57 57 58 59 59 59 60 57 50 35 32 42 44 72 74 70 69 74 76 55 42 36 35 32 31 29 24 25 26 28 35 35 38 45 53 54 52 52 53 57 54 58 62 63 64 64 62 62 61 61 64 64 63 61 59 58 61 62 63 64 65 66 66 67 68 68
57 57 57 57 57 57 57 57 57 57 57 57 57 57 57 57 57 57 57 57 57 57 58 58 58 59 59 60 58 57 38 29 33 34 77 73 74 71 70 74 73 48 37 36 34 28 28 31 30 36 39 33 37 37 36 48 53 50 51 56 57 57 56 61 64 64 63 62 61 61 63 65 63 62 63 60 60 61 64 64 64 65 65 66 67 67 67 67
57 57 57 57 57 57 57 57 57 57 57 57 57 57 57 57 57 57 57 57 57 57 58 58 58 59 59 60 54 46 27 25 31 33 74 76 75 70 71 75 67 47 41 36 36 35 26 27 33 34 38 38 37 37 35 44 51 48 47 54 56 58 60 62 63 63 63 62 61 63 65 61 62 58 63 62 63 65 67 64 64 65 65 66 66 67 67 67
56 56 56 56 56 57 57 57 57 57 57 57 57 57 57 56 56 57 57 57 57 57 58 58 58 58 59 54 39 31 23 20 22 57 76 75 72 72 69 57 49 45 43 39 35 35 30 27 24 36 37 36 37 35 39 48 51 49 50 56 57 60 63 64 64 63 63 63 64 64 61 61 63 61 62 62 65 69 64 64 64 65 65 65 66 66 67 67
56 56 56 56 56 56 56 57 57 57 57 57 57 56 56 56 57 57 57 57 57 58 58 58 58 59 59 56 33 17 12 19 36 68 68 69 67 63 57 53 45 44 42 36 35 33 24 22 33 36 35 36 35 33 44 45 46 50 49 58 58 62 63 63 62 62 62 63 64 62 61 62 64 64 61 62 65 66 65 64 64 65 65 65 65 66 66 67
56 56 56 56 56 56 56 57 57 57 56 56 57 56 56 56 56 57 57 57 58 58 57 57 58 59 57 40 20 11 12 20 64 66 63 64 61 57 48 49 43 40 39 38 32 34 23 31 33 39 37 36 34 26 48 46 43 54 56 56 60 62 62 62 60 61 62 62 63 61 60 61 63 60 56 61 65 65 65 65 64 65 64 65 65 65 66 66
56 56 56 56 56 56 56 56 57 57 56 56 56 56 56 56 56 57 57 58 58 58 58 58 59 58 45 47 21 13 19 40 57 59 58 58 55 52 45 46 42 40 39 40 36 36 37 41 42 38 32 33 25 23 45 47 51 57 59 60 62 62 63 62 61 61 60 59 62 61 60 61 61 59 56 60 66 66 64 64 64 65 65 65 65 65 66 66
56 56 56 56 56 56 56 56 56 56 56 56 56 56 56 56 56 57 58 58 59 58 58 58 59 57 54 24 20 15 25 39 55 56 52 51 51 50 44 45 41 40 37 37 38 35 41 43 37 34 28 28 25 27 37 45 57 57 55 52 57 58 59 61 60 61 61 59 63 62 56 55 57 56 59 62 67 65 64 64 64 65 65 65 65 65 66 66
56 56 56 56 56 56 56 56 56 56 56 55 55 55 55 56 56 57 58 59 60 59 59 58 58 58 41 13 19 22 30 47 49 51 50 44 37 38 43 44 43 42 38 34 35 37 38 41 38 35 34 27 26 24 45 53 55 54 56 55 52 51 52 56 62 62 60 60 63 59 48 49 54 58 61 65 65 64 63 63 64 64 65 65 65 65 65 66
56 56 56 56 56 56 56 56 56 56 55 55 55 55 55 56 57 58 59 59 60 59 59 59 58 56 22 7 9 16 22 40 42 44 45 45 35 34 39 41 41 37 39 32 36 38 38 39 36 32 31 26 24 34 47 47 52 50 52 52 48 44 44 54 61 60 57 61 63 57 46 48 52 55 59 64 65 63 62 63 63 64 64 64 64 65 65 65
56 56 56 56 56 56 56 56 55 55 55 55 55 55 55 56 57 59 60 60 60 60 59 59 56 37 16 12 24 43 60 34 34 34 40 38 34 35 32 38 38 36 36 37 36 36 33 30 28 29 23 29 29 32 35 44 50 51 42 40 46 44 45 52 60 60 55 59 62 54 47 49 52 55 57 64 64 62 61 62 62 63 63 63 64 63 64 64
56 56 56 56 55 55 56 55 55 55 55 55 54 54 55 56 58 60 60 60 59 60 59 56 54 44 25 18 33 58 42 34 26 29 34 36 33 34 35 34 35 36 36 32 37 36 35 29 26 24 27 26 25 32 32 30 36 43 41 42 42 46 46 49 57 61 60 60 60 54 47 51 50 56 61 64 63 62 61 61 61 62 63 63 63 63 63 63
55 56 55 55 55 55 55 55 55 55 55 54 54 54 55 58 59 61 61 60 60 59 58 53 52 57 24 24 34 36 35 39 39 33 32 36 34 36 37 36 34 36 37 35 37 34 27 25 28 25 25 23 25 24 21 25 24 25 42 43 43 41 43 42 52 59 60 58 56 58 53 53 52 58 63 64 63 62 60 60 61 61 62 62 62 62 62 62
56 55 55 55 55 55 55 55 55 54 54 54 53 54 55 58 60 61 60 59 57 57 55 56 51 31 22 27 27 31 37 37 38 36 31 32 34 35 37 37 34 31 29 30 29 28 27 22 23 20 22 24 25 24 23 21 22 26 37 38 36 43 46 42 45 51 59 58 54 56 56 55 56 58 62 63 63 61 61 62 61 61 61 61 62 62 62 62
56 55 55 55 54 55 55 55 54 54 54 53 54 55 56 59 57 55 53 56 40 28 27 35 25 22 21 22 29 30 36 39 36 33 31 29 37 37 39 35 32 34 28 28 28 22 22 22 23 22 19 20 22 23 20 28 28 29 40 38 41 36 34 39 48 54 59 56 53 55 53 54 54 56 60 62 63 61 61 62 62 62 62 60 61 61 61 61
56 55 55 54 54 54 54 54 54 53 53 52 49 56 55 49 38 45 53 53 47 27 30 31 30 27 28 30 29 29 35 34 31 32 34 46 32 33 34 34 28 24 28 31 25 21 24 19 18 17 18 20 23 24 23 28 28 33 36 31 28 35 32 43 52 55 58 53 53 54 54 53 54 54 58 62 62 60 60 60 61 62 62 62 61 61 60 60
56 56 55 54 54 54 54 54 53 53 52 51 50 45 33 36 32 32 36 47 48 44 38 34 30 27 28 33 33 33 31 32 33 32 33 42 34 29 31 33 26 29 25 27 26 21 21 22 18 18 19 20 21 25 26 26 25 24 24 24 24 25 25 27 39 55 58 53 51 53 54 54 54 54 57 62 62 61 60 59 60 62 62 62 62 60 60 60
56 55 54 54 53 53 54 53 53 52 51 50 50 42 38 39 37 37 36 34 36 39 43 39 36 32 32 31 36 34 34 32 31 32 33 33 33 28 30 31 26 29 26 19 20 19 23 17 17 18 19 21 22 22 24 22 21 22 20 23 22 22 30 33 55 57 57 53 50 53 53 52 53 54 58 62 62 62 61 59 60 62 62 63 63 63 62 65
55 55 54 54 53 53 53 53 52 51 50 49 47 44 40 41 42 42 39 34 36 36 38 41 38 36 35 39 38 36 32 31 29 31 33 33 32 30 29 28 26 26 18 19 19 24 18 16 16 18 19 19 25 19 18 19 21 18 18 21 18 27 23 22 38 56 56 51 49 52 52 52 53 54 56 61 62 61 62 61 62 62 62 61 62 64 65 65
54 55 54 54 54 53 53 52 51 50 50 48 46 44 44 46 45 40 37 30 28 33 40 40 39 38 37 34 36 34 32 32 31 30 35 32 29 32 28 28 24 22 20 17 19 18 18 17 18 18 18 17 17 18 16 18 13 15 16 16 16 16 22 21 30 54 54 54 51 49 46 45 46 49 51 56 61 60 60 62 62 63 62 62 65 65 66 65
54 54 54 54 54 53 51 51 49 48 48 49 47 48 47 47 49 43 32 29 28 28 35 38 41 39 37 40 37 33 34 32 30 31 35 31 29 27 26 27 24 22 22 19 17 17 15 16 17 16 17 17 17 15 15 15 13 13 15 16 15 15 15 48 51 51 46 46 52 49 40 41 44 46 49 53 58 60 59 60 61 62 62 62 63 63 64 66
54 54 54 54 53 51 51 50 49 46 46 42 43 44 47 47 47 39 33 28 26 27 28 25 39 30 39 36 36 35 32 29 32 30 34 33 36 29 25 22 25 23 21 18 17 17 17 19 16 16 16 17 16 14 16 14 13 14 13 16 15 15 16 48 51 46 42 40 45 49 40 38 42 44 47 52 56 58 58 59 59 61 62 62 62 63 63 65
53 53 54 53 53 51 43 46 47 47 36 36 43 46 46 48 51 33 30 27 25 30 23 26 28 27 35 35 35 29 22 23 29 35 36 45 30 31 25 24 21 24 21 22 22 15 19 18 17 17 16 16 17 14 15 14 14 14 16 17 17 23 32 47 49 43 43 48 47 47 44 39 40 42 46 50 53 54 56 58 58 59 61 62 62 62 63 64
54 53 53 52 52 51 44 48 46 43 37 40 47 46 47 49 43 36 29 22 22 30 22 25 27 30 30 34 33 25 24 32 26 27 35 36 29 25 27 25 20 20 20 18 15 16 16 18 15 16 17 14 13 14 17 16 14 14 19 27 29 33 36 48 46 42 43 43 40 45 47 42 41 43 49 52 50 51 52 55 57 58 59 61 62 63 63 64
53 53 52 52 51 51 50 48 47 41 44 48 47 47 47 46 34 29 25 21 26 28 27 21 25 28 29 33 32 28 27 25 23 26 32 32 30 24 26 25 21 19 21 16 15 16 19 15 17 17 16 15 15 15 17 16 15 16 26 40 42 44 45 45 42 41 40 36 34 43 46 39 40 42 46 49 48 48 49 51 54 57 58 60 61 63 64 64
52 52 51 51 49 49 47 49 47 47 50 48 47 48 46 36 33 30 24 21 28 23 26 24 22 21 31 30 30 28 26 27 28 30 31 31 32 29 26 23 20 20 19 21 18 16 17 45 32 18 17 17 17 17 16 16 16 16 30 38 37 37 39 42 42 42 38 34 35 43 45 39 33 37 44 45 47 47 47 50 52 55 57 59 60 62 63 64
51 51 51 51 46 49 48 41 44 48 48 48 48 41 36 34 35 29 22 23 30 27 22 22 22 27 28 27 24 27 26 23 28 29 28 29 28 28 29 25 25 24 24 23 21 21 21 20 24 29 28 21 17 16 13 17 16 15 13 31 28 30 35 38 38 39 34 33 36 39 45 39 34 37 39 47 49 50 48 47 49 52 54 57 59 60 62 64
50 50 50 49 49 50 40 40 44 48 48 50 44 34 30 26 26 21 24 27 25 25 23 26 25 21 24 23 24 24 24 21 27 28 27 27 27 27 26 24 26 21 23 22 21 18 16 18 19 17 46 20 16 15 13 12 11 13 20 25 21 19 33 30 33 30 32 31 35 41 43 41 40 38 39 41 45 49 50 49 48 50 52 54 57 59 60 63
49 49 50 50 51 48 48 47 51 50 51 51 39 35 31 27 22 26 27 27 27 28 28 26 24 21 20 21 21 21 22 21 22 27 28 27 27 27 28 26 26 23 21 27 21 14 13 16 17 16 16 29 14 12 11 8 10 9 10 17 15 19 21 22 28 29 26 25 26 38 43 38 38 37 40 40 41 45 50 51 50 50 51 52 55 59 60 61
49 49 49 50 50 49 51 54 51 50 47 51 34 29 28 21 23 54 32 31 28 30 32 28 26 18 20 18 19 20 20 21 22 22 26 28 25 27 26 27 25 24 20 24 18 15 17 15 14 13 10 16 15 12 11 11 10 8 12 11 12 18 17 14 22 20 19 24 24 39 38 37 33 35 42 47 50 52 48 51 52 52 52 54 55 59 60 61
49 49 50 50 51 51 50 51 50 51 43 37 33 31 25 25 30 28 29 28 30 30 30 30 21 17 17 18 18 20 20 20 22 25 27 23 23 25 26 25 27 23 22 21 27 23 15 16 16 17 15 14 13 16 14 11 10 12 15 13 13 14 24 11 18 24 23 27 33 37 36 36 34 38 49 54 58 59 53 52 54 54 56 56 56 58 60 61
50 50 51 52 53 55 51 51 50 49 38 36 36 31 24 29 25 29 29 31 32 30 30 24 21 21 22 21 24 22 21 19 17 22 19 25 26 25 26 26 25 23 20 21 27 16 22 13 14 16 18 14 13 18 15 11 12 19 10 11 11 15 24 30 38 30 29 21 24 36 34 35 41 37 46 53 55 56 56 51 53 55 56 56 56 58 59 61
51 52 47 52 52 53 52 51 51 44 39 35 31 28 30 34 28 30 51 33 31 31 25 21 21 21 22 21 23 24 24 14 14 16 17 20 26 33 28 27 27 25 22 23 22 17 19 18 18 18 16 17 18 15 14 15 13 9 10 11 18 21 17 14 13 18 24 14 20 33 33 34 33 30 45 47 50 51 58 57 55 57 57 56 57 58 59 61
50 53 52 44 47 52 52 51 47 41 39 38 35 45 43 30 34 32 33 33 33 29 27 24 23 24 25 25 26 26 25 16 18 13 17 19 30 34 35 38 36 28 35 29 23 25 16 15 18 17 16 15 16 12 10 14 14 10 9 17 9 16 13 23 15 11 10 13 24 29 37 40 39 35 41 40 45 46 55 58 57 58 58 57 58 59 60 62
51 44 42 43 50 51 52 53 45 43 38 35 36 35 40 36 35 34 34 34 35 32 26 26 26 27 24 25 26 27 26 26 25 17 20 21 26 34 38 39 36 39 41 31 21 24 19 19 19 20 13 15 12 12 14 11 11 16 13 10 19 17 24 18 16 22 15 13 20 19 33 29 40 40 41 40 44 46 56 57 57 57 59 58 59 60 61 62
47 41 39 45 48 55 56 51 42 39 36 33 35 37 35 35 35 34 32 37 32 29 30 29 30 29 30 28 28 28 28 28 24 24 25 36 27 34 37 39 39 39 42 31 21 23 20 21 17 18 17 16 17 18 10 11 10 10 9 11 13 19 23 17 21 18 15 23 24 24 24 30 36 42 44 42 44 48 56 56 58 58 60 60 60 61 61 62
48 40 40 45 48 49 48 41 39 38 36 37 39 35 36 34 36 32 32 34 34 35 32 32 32 32 32 30 30 30 29 28 27 28 26 35 37 36 38 38 39 41 42 42 42 33 20 19 16 17 15 15 15 16 12 10 10 10 9 13 8 12 14 12 14 20 29 24 21 25 22 30 35 43 46 43 46 51 57 58 59 59 60 61 61 62 62 62
40 36 35 41 47 43 39 37 39 43 36 35 35 35 34 47 32 33 33 34 35 34 36 35 35 34 34 34 32 32 32 29 33 29 34 35 37 38 38 39 39 42 41 40 41 42 29 25 20 13 13 14 14 15 16 12 13 12 10 11 11 14 17 16 9 20 22 29 33 32 25 28 38 44 48 47 49 52 58 59 59 60 60 60 61 62 63 63
44 37 42 47 43 42 40 38 45 44 39 39 40 34 33 33 34 34 34 34 33 35 34 34 35 34 35 35 34 35 34 34 36 32 36 38 36 35 38 38 39 42 43 42 45 39 51 25 22 20 24 24 22 23 27 26 16 14 15 15 11 10 10 11 15 24 20 30 28 28 26 26 36 50 54 52 51 54 59 59 59 60 60 60 61 62 62 63
44 46 43 45 42 43 40 38 38 39 44 43 37 35 36 34 34 33 33 34 34 34 33 33 33 35 35 35 35 36 38 32 36 37 38 39 34 35 40 36 39 41 43 42 44 47 32 33 21 20 21 19 21 25 21 26 18 20 16 23 15 14 15 18 25 30 23 28 28 25 22 25 38 48 53 54 55 56 58 59 60 59 59 60 61 62 62 63
45 45 47 48 43 42 38 37 40 40 41 41 35 33 34 35 36 35 34 34 35 34 35 33 34 34 33 34 36 36 35 38 38 38 37 39 33 37 37 36 38 40 44 51 53 50 31 33 32 22 18 16 17 17 21 23 25 24 23 19 24 11 16 19 17 25 15 30 31 27 27 31 35 45 51 52 54 55 57 58 59 59 60 60 61 62 62 63
39 32 37 35 37 40 40 45 43 42 42 41 35 35 34 33 34 35 35 35 35 35 35 36 37 34 34 34 35 35 35 36 36 35 34 34 33 35 34 35 38 39 52 50 52 42 33 38 37 32 26 25 27 30 29 39 32 19 16 19 17 21 22 23 24 22 17 30 31 35 32 33 32 34 48 50 53 53 55 57 58 59 60 60 61 62 62 63
44 39 39 34 38 39 41 41 42 42 41 41 35 35 33 33 33 34 35 34 35 36 35 36 36 35 35 34 34 36 37 35 38 35 35 35 35 34 35 36 37 47 51 44 49 42 40 36 34 37 34 33 32 34 33 36 28 24 20 17 17 19 23 17 17 20 31 28 23 37 41 32 30 35 45 50 51 53 54 56 58 58 60 60 61 62 64 62
34 38 41 42 33 35 41 40 43 42 41 39 37 36 34 34 34 34 34 35 36 37 35 36 36 36 36 35 36 36 37 37 38 36 37 36 36 36 35 35 36 46 43 35 44 37 37 34 33 36 34 34 34 34 32 30 27 29 26 21 17 18 27 25 24 25 28 23 20 32 40 35 35 34 41 49 51 52 53 56 58 59 60 61 61 61 62 62
43 44 44 47 37 38 42 43 45 45 37 45 44 37 35 35 35 36 34 33 34 36 36 36 36 36 37 39 38 37 38 35 35 39 37 37 37 37 34 35 37 37 35 35 36 42 37 34 35 37 34 33 33 34 34 33 32 32 31 27 19 17 21 27 31 30 26 32 33 34 41 35 34 36 40 48 53 54 55 58 59 59 60 61 61 61 61 62
41 41 40 46 46 45 47 44 41 39 36 42 37 35 36 36 35 36 35 35 36 36 37 36 36 37 39 38 40 38 38 38 38 37 40 39 37 38 36 35 34 36 36 34 37 39 34 33 46 36 33 30 33 37 34 33 33 30 28 25 23 18 39 45 48 48 42 39 42 37 38 38 38 43 45 53 54 56 57 57 58 59 60 61 60 61 61 62
46 47 46 41 38 43 48 41 41 39 38 38 37 36 39 36 35 36 36 36 35 35 36 36 37 38 39 39 38 38 38 38 39 38 39 39 37 38 36 36 36 34 36 36 39 38 38 35 40 37 30 28 33 33 33 32 30 27 27 36 40 38 43 46 46 49 44 37 41 38 33 37 41 46 51 54 54 54 55 57 57 59 60 61 60 60 61 62
46 47 48 43 34 43 40 42 41 38 37 38 40 36 37 36 37 36 36 38 36 36 36 37 39 38 38 40 39 38 37 37 37 38 38 38 39 39 38 37 37 36 37 36 40 35 37 37 33 35 29 29 29 33 32 30 28 27 32 41 41 42 47 48 48 48 49 47 37 31 32 41 45 51 49 49 54 53 54 56 57 59 60 60 60 60 61 62